User: anonymous   Login
Location: Unspecified
(0.0000°N, 0.0000°E)
Time: 19:14:53
(UTC+00:00)
Language:

STARLINK-5136 - Orbit

View from above orbital plane
View from above orbital plane
View from above satellite
View from above satellite

Ground track
Ground track

The orbit is defined by the following mean orbital elements,

1 56414U          26145.38715200 +.00000000 +00000-0 +31415-4 0 00005
2 56414  43.0041 113.9510 0001179 268.8850  91.1867 15.27568651    07
Epoch (UTC): 25 May 2026 09:17:29
Eccentricity: 0.0001179
inclination: 43.0041°
perigee height: 482 km
apogee height: 484 km
right ascension of ascending node: 113.9510°
argument of perigee: 268.8850°
revolutions per day: 15.27568651
mean anomaly at epoch: 91.1867°

The dashed part of the orbit path shows where the satellite is in the earth's shadow,  

DLR